| time (UTC) | temp F | wind direction | speed MPH | gust MPH | rain 1hr in | rain 24hr in | rain mn in | humidity % | barometer mb |
| 20260509023547 | 37 | 0.0 | 0.0 | 0.00 | 0.00 | 0.00 | 92 | 1012.8 | |
| 20260509022522 | 38 | 202 | 0.0 | 1.0 | 0.00 | 0.00 | 0.00 | 92 | 1012.6 |
| 20260509021539 | 38 | 224 | 1.0 | 2.0 | 0.00 | 0.00 | 0.00 | 91 | 1012.6 |
| 20260509020535 | 39 | 217 | 1.0 | 2.0 | 0.00 | 0.00 | 0.00 | 90 | 1012.5 |
| 20260509015531 | 39 | 220 | 1.0 | 2.0 | 0.00 | 0.00 | 0.00 | 88 | 1012.3 |
| 20260509014527 | 40 | 0.0 | 0.0 | 0.00 | 0.00 | 0.00 | 87 | 1012.3 | |
| 20260509013523 | 40 | 0.0 | 0.0 | 0.00 | 0.00 | 0.00 | 86 | 1012.1 | |
| 20260509012518 | 41 | 0.0 | 0.0 | 0.00 | 0.00 | 0.00 | 85 | 1012.0 | |
| 20260509011614 | 42 | 0.0 | 0.0 | 0.00 | 0.00 | 0.00 | 82 | 1011.9 | |
| 20260509010550 | 42 | 0.0 | 0.0 | 0.00 | 0.00 | 0.00 | 79 | 1011.7 | |
| 20260509005526 | 43 | 0.0 | 0.0 | 0.00 | 0.00 | 0.00 | 79 | 1011.5 | |
| 20260509004522 | 43 | 0.0 | 0.0 | 0.00 | 0.00 | 0.00 | 77 | 1011.3 | |
| 20260509003518 | 44 | 0.0 | 0.0 | 0.00 | 0.00 | 0.00 | 76 | 1011.1 | |
| 20260509002614 | 46 | 0.0 | 0.0 | 0.00 | 0.00 | 0.00 | 72 | 1011.3 | |
| 20260509001530 | 48 | 256 | 2.0 | 2.0 | 0.00 | 0.00 | 0.00 | 67 | 1011.1 |
| 20260509000546 | 49 | 222 | 1.0 | 3.0 | 0.00 | 0.00 | 0.00 | 62 | 1011.1 |
| 20260508235521 | 50 | 234 | 1.0 | 3.0 | 0.00 | 0.00 | 0.00 | 61 | 1010.9 |
| 20260508234537 | 50 | 208 | 2.0 | 6.0 | 0.00 | 0.00 | 0.00 | 60 | 1011.0 |
| 20260508233533 | 51 | 204 | 2.0 | 4.0 | 0.00 | 0.00 | 0.00 | 61 | 1010.8 |
| 20260508232528 | 51 | 232 | 1.0 | 3.0 | 0.00 | 0.00 | 0.00 | 61 | 1010.7 |
| 20260508231544 | 51 | 224 | 3.0 | 6.0 | 0.00 | 0.00 | 0.00 | 60 | 1010.8 |
| 20260508230540 | 51 | 254 | 2.0 | 6.0 | 0.00 | 0.00 | 0.00 | 60 | 1010.7 |
| 20260508225536 | 51 | 245 | 4.0 | 7.0 | 0.00 | 0.00 | 0.00 | 60 | 1010.6 |
| 20260508224533 | 52 | 260 | 4.0 | 7.0 | 0.00 | 0.00 | 0.00 | 58 | 1010.4 |
| 20260508223527 | 52 | 238 | 3.0 | 11.0 | 0.00 | 0.00 | 0.00 | 60 | 1010.4 |
| 20260508222522 | 52 | 241 | 5.0 | 9.0 | 0.00 | 0.00 | 0.00 | 59 | 1010.2 |
| 20260508221519 | 52 | 244 | 5.0 | 10.0 | 0.00 | 0.00 | 0.00 | 60 | 1010.3 |
| 20260508220554 | 52 | 253 | 3.0 | 8.0 | 0.00 | 0.00 | 0.00 | 61 | 1010.4 |
| 20260508215530 | 52 | 244 | 4.0 | 8.0 | 0.00 | 0.00 | 0.00 | 61 | 1010.4 |
| 20260508214526 | 52 | 243 | 4.0 | 10.0 | 0.00 | 0.00 | 0.00 | 61 | 1010.3 |
| 20260508213542 | 51 | 252 | 6.0 | 11.0 | 0.00 | 0.00 | 0.00 | 60 | 1010.3 |
| 20260508212518 | 52 | 264 | 8.0 | 13.0 | 0.00 | 0.00 | 0.00 | 58 | 1010.2 |
| 20260508211555 | 52 | 262 | 9.0 | 16.0 | 0.00 | 0.00 | 0.00 | 57 | 1010.2 |
| 20260508210549 | 54 | 246 | 8.0 | 18.0 | 0.00 | 0.00 | 0.00 | 57 | 1010.1 |
| 20260508205525 | 54 | 266 | 12.0 | 18.0 | 0.00 | 0.00 | 0.00 | 56 | 1009.9 |
| 20260508204521 | 55 | 236 | 7.0 | 14.0 | 0.00 | 0.00 | 0.00 | 54 | 1009.7 |
| 20260508203518 | 55 | 227 | 11.0 | 22.0 | 0.00 | 0.00 | 0.00 | 48 | 1009.6 |
| 20260508202534 | 55 | 259 | 9.0 | 15.0 | 0.00 | 0.00 | 0.00 | 45 | 1009.6 |
| 20260508201530 | 56 | 266 | 9.0 | 15.0 | 0.00 | 0.00 | 0.00 | 45 | 1009.4 |
| 20260508200525 | 56 | 234 | 7.0 | 13.0 | 0.00 | 0.00 | 0.00 | 46 | 1009.4 |
| 20260508195522 | 55 | 252 | 9.0 | 16.0 | 0.00 | 0.00 | 0.00 | 43 | 1009.4 |
| 20260508194517 | 54 | 271 | 6.0 | 11.0 | 0.00 | 0.00 | 0.00 | 44 | 1009.6 |
| 20260508193532 | 54 | 274 | 8.0 | 16.0 | 0.00 | 0.00 | 0.00 | 44 | 1009.6 |
| 20260508192529 | 54 | 268 | 8.0 | 14.0 | 0.00 | 0.00 | 0.00 | 44 | 1009.6 |
| 20260508191524 | 55 | 242 | 6.0 | 13.0 | 0.00 | 0.00 | 0.00 | 44 | 1009.6 |
| 20260508190520 | 55 | 261 | 8.0 | 13.0 | 0.00 | 0.00 | 0.00 | 43 | 1009.5 |
| 20260508185516 | 54 | 250 | 6.0 | 16.0 | 0.00 | 0.00 | 0.00 | 45 | 1009.6 |
| 20260508184532 | 56 | 285 | 7.0 | 15.0 | 0.00 | 0.00 | 0.00 | 44 | 1009.6 |
| 20260508183528 | 54 | 276 | 5.0 | 13.0 | 0.00 | 0.00 | 0.00 | 44 | 1009.7 |
| 20260508182547 | 54 | 283 | 6.0 | 10.0 | 0.00 | 0.00 | 0.00 | 43 | 1009.8 |
| 20260508181519 | 54 | 253 | 3.0 | 8.0 | 0.00 | 0.00 | 0.00 | 43 | 1009.8 |
| 20260508180556 | 53 | 234 | 4.0 | 7.0 | 0.00 | 0.00 | 0.00 | 44 | 1010.0 |
| 20260508175531 | 53 | 285 | 5.0 | 13.0 | 0.00 | 0.00 | 0.00 | 45 | 1010.0 |
| 20260508174527 | 53 | 311 | 6.0 | 13.0 | 0.00 | 0.00 | 0.00 | 44 | 1010.1 |
| 20260508173522 | 53 | 354 | 4.0 | 10.0 | 0.00 | 0.00 | 0.00 | 45 | 1010.1 |
| 20260508172518 | 53 | 310 | 5.0 | 10.0 | 0.00 | 0.00 | 0.00 | 44 | 1010.2 |
| 20260508171535 | 52 | 280 | 7.0 | 14.0 | 0.00 | 0.00 | 0.00 | 45 | 1010.2 |
| 20260508170531 | 53 | 277 | 5.0 | 11.0 | 0.00 | 0.00 | 0.00 | 44 | 1010.1 |
| 20260508165526 | 53 | 325 | 5.0 | 10.0 | 0.00 | 0.00 | 0.00 | 44 | 1010.1 |
| 20260508164523 | 53 | 251 | 2.0 | 4.0 | 0.00 | 0.00 | 0.00 | 44 | 1010.3 |
| 20260508163519 | 52 | 287 | 7.0 | 14.0 | 0.00 | 0.00 | 0.00 | 45 | 1010.6 |
| 20260508162535 | 52 | 305 | 5.0 | 10.0 | 0.00 | 0.00 | 0.00 | 45 | 1010.6 |
| 20260508161531 | 51 | 280 | 5.0 | 9.0 | 0.00 | 0.00 | 0.00 | 46 | 1010.7 |
| 20260508160546 | 51 | 268 | 3.0 | 6.0 | 0.00 | 0.00 | 0.00 | 46 | 1010.6 |
| 20260508155522 | 51 | 267 | 4.0 | 8.0 | 0.00 | 0.00 | 0.00 | 45 | 1010.6 |
| 20260508154519 | 50 | 270 | 5.0 | 9.0 | 0.00 | 0.00 | 0.00 | 45 | 1010.7 |
| 20260508153534 | 51 | 266 | 4.0 | 9.0 | 0.00 | 0.00 | 0.00 | 46 | 1010.6 |
| 20260508152531 | 51 | 277 | 1.0 | 2.0 | 0.00 | 0.00 | 0.00 | 45 | 1010.6 |
| 20260508151547 | 50 | 308 | 4.0 | 7.0 | 0.00 | 0.00 | 0.00 | 47 | 1010.6 |
| 20260508150543 | 51 | 2 | 3.0 | 7.0 | 0.00 | 0.00 | 0.00 | 47 | 1010.5 |
| 20260508145519 | 51 | 243 | 3.0 | 6.0 | 0.00 | 0.00 | 0.00 | 49 | 1010.3 |
| 20260508144555 | 50 | 183 | 2.0 | 7.0 | 0.00 | 0.00 | 0.00 | 47 | 1010.4 |
| 20260508143530 | 50 | 284 | 5.0 | 10.0 | 0.00 | 0.00 | 0.00 | 50 | 1010.4 |
| 20260508142526 | 50 | 263 | 6.0 | 14.0 | 0.00 | 0.00 | 0.00 | 49 | 1010.4 |
| 20260508141542 | 50 | 305 | 4.0 | 11.0 | 0.00 | 0.00 | 0.00 | 50 | 1010.5 |
| 20260508140518 | 50 | 293 | 5.0 | 11.0 | 0.00 | 0.00 | 0.00 | 50 | 1010.8 |
| 20260508135534 | 49 | 282 | 8.0 | 17.0 | 0.00 | 0.00 | 0.00 | 51 | 1010.7 |
| 20260508134530 | 49 | 263 | 5.0 | 13.0 | 0.00 | 0.00 | 0.00 | 54 | 1010.8 |
| 20260508133526 | 49 | 272 | 5.0 | 9.0 | 0.00 | 0.00 | 0.00 | 55 | 1010.9 |
| 20260508132523 | 48 | 270 | 5.0 | 11.0 | 0.00 | 0.00 | 0.00 | 56 | 1010.9 |
| 20260508131518 | 48 | 262 | 5.0 | 10.0 | 0.00 | 0.00 | 0.00 | 57 | 1011.0 |
| 20260508130534 | 48 | 277 | 6.0 | 13.0 | 0.00 | 0.00 | 0.00 | 59 | 1011.0 |
| 20260508125529 | 47 | 297 | 5.0 | 10.0 | 0.00 | 0.00 | 0.00 | 60 | 1011.0 |
| 20260508124545 | 47 | 305 | 5.0 | 8.0 | 0.00 | 0.00 | 0.00 | 61 | 1011.0 |
| 20260508123521 | 46 | 279 | 5.0 | 8.0 | 0.00 | 0.00 | 0.00 | 62 | 1010.9 |
| 20260508122517 | 45 | 254 | 2.0 | 6.0 | 0.00 | 0.00 | 0.00 | 69 | 1010.9 |
| 20260508121533 | 44 | 172 | 3.0 | 7.0 | 0.00 | 0.00 | 0.00 | 72 | 1011.0 |
| 20260508120529 | 44 | 161 | 4.0 | 7.0 | 0.00 | 0.00 | 0.00 | 73 | 1010.9 |
| 20260508115545 | 44 | 169 | 3.0 | 7.0 | 0.00 | 0.00 | 0.00 | 74 | 1011.0 |
| 20260508114521 | 44 | 250 | 2.0 | 4.0 | 0.00 | 0.00 | 0.00 | 73 | 1010.9 |
| 20260508113517 | 43 | 246 | 0.0 | 1.0 | 0.00 | 0.00 | 0.00 | 76 | 1010.8 |
| 20260508112553 | 41 | 216 | 1.0 | 2.0 | 0.00 | 0.00 | 0.00 | 81 | 1010.8 |
| 20260508111550 | 40 | 243 | 1.0 | 2.0 | 0.00 | 0.00 | 0.00 | 92 | 1010.8 |
| 20260508110526 | 39 | 0.0 | 0.0 | 0.00 | 0.00 | 0.00 | 96 | 1010.7 | |
| 20260508105522 | 38 | 0.0 | 0.0 | 0.00 | 0.00 | 0.00 | 97 | 1010.6 | |
| 20260508104518 | 37 | 0.0 | 0.0 | 0.00 | 0.00 | 0.00 | 98 | 1010.6 | |
| 20260508103533 | 36 | 0.0 | 0.0 | 0.00 | 0.00 | 0.00 | 99 | 1010.5 | |
| 20260508102529 | 35 | 0.0 | 0.0 | 0.00 | 0.00 | 0.00 | 99 | 1010.3 | |
| 20260508101525 | 35 | 0.0 | 0.0 | 0.00 | 0.00 | 0.00 | 99 | 1010.2 | |
| 20260508100542 | 34 | 0.0 | 0.0 | 0.00 | 0.00 | 0.00 | 99 | 1010.0 | |
| 20260508095517 | 34 | 0.0 | 0.0 | 0.00 | 0.00 | 0.00 | 99 | 1009.9 | |
| 20260508094533 | 34 | 0.0 | 0.0 | 0.00 | 0.00 | 0.00 | 99 | 1009.9 | |
| 20260508093529 | 34 | 0.0 | 0.0 | 0.00 | 0.00 | 0.00 | 99 | 1009.7 | |
| 20260508092525 | 34 | 0.0 | 0.0 | 0.00 | 0.00 | 0.00 | 99 | 1009.7 | |
| 20260508091521 | 34 | 0.0 | 0.0 | 0.00 | 0.00 | 0.00 | 99 | 1009.7 | |
| 20260508090517 | 34 | 0.0 | 0.0 | 0.00 | 0.00 | 0.00 | 99 | 1009.7 | |
| 20260508085533 | 34 | 0.0 | 0.0 | 0.00 | 0.00 | 0.00 | 99 | 1009.6 | |
| 20260508084529 | 34 | 0.0 | 0.0 | 0.00 | 0.00 | 0.00 | 99 | 1009.8 | |
| 20260508083525 | 33 | 0.0 | 0.0 | 0.00 | 0.00 | 0.00 | 99 | 1009.6 | |
| 20260508082521 | 33 | 0.0 | 0.0 | 0.00 | 0.00 | 0.00 | 99 | 1009.6 | |
| 20260508081518 | 33 | 0.0 | 0.0 | 0.00 | 0.00 | 0.00 | 99 | 1009.5 | |
| 20260508080535 | 33 | 0.0 | 0.0 | 0.00 | 0.00 | 0.00 | 99 | 1009.5 | |
| 20260508075530 | 32 | 0.0 | 0.0 | 0.00 | 0.00 | 0.00 | 99 | 1009.3 | |
| 20260508074546 | 32 | 0.0 | 0.0 | 0.00 | 0.00 | 0.00 | 99 | 1009.4 | |
| 20260508073523 | 32 | 0.0 | 0.0 | 0.00 | 0.00 | 0.00 | 99 | 1009.4 | |
| 20260508072519 | 32 | 0.0 | 0.0 | 0.00 | 0.00 | 0.00 | 99 | 1009.3 | |
| 20260508071535 | 32 | 0.0 | 0.0 | 0.00 | 0.00 | 0.00 | 99 | 1009.3 | |
| 20260508070531 | 31 | 0.0 | 0.0 | 0.00 | 0.00 | 0.00 | 99 | 1009.3 | |
| 20260508065527 | 31 | 0.0 | 0.0 | 0.00 | 0.00 | 0.00 | 99 | 1009.5 | |
| 20260508064522 | 31 | 0.0 | 0.0 | 0.00 | 0.00 | 0.00 | 99 | 1009.6 | |
| 20260508063518 | 31 | 0.0 | 0.0 | 0.00 | 0.00 | 0.00 | 99 | 1009.3 | |
| 20260508062555 | 31 | 0.0 | 0.0 | 0.00 | 0.00 | 0.00 | 99 | 1009.4 | |
| 20260508061531 | 31 | 0.0 | 0.0 | 0.00 | 0.00 | 0.00 | 99 | 1009.5 | |
| 20260508060527 | 32 | 0.0 | 0.0 | 0.00 | 0.00 | 0.00 | 99 | 1009.4 | |
| 20260508055524 | 32 | 0.0 | 0.0 | 0.00 | 0.00 | 0.00 | 99 | 1009.5 | |
| 20260508054520 | 32 | 0.0 | 0.0 | 0.00 | 0.00 | 0.00 | 98 | 1009.6 | |
| 20260508053516 | 32 | 206 | 1.0 | 2.0 | 0.00 | 0.00 | 0.00 | 98 | 1009.6 |
| 20260508052532 | 32 | 0.0 | 0.0 | 0.00 | 0.00 | 0.00 | 98 | 1009.7 | |
| 20260508051609 | 32 | 0.0 | 0.0 | 0.00 | 0.00 | 0.00 | 97 | 1009.6 | |
| 20260508050524 | 32 | 0.0 | 0.0 | 0.00 | 0.00 | 0.00 | 97 | 1009.5 | |
| 20260508045528 | 33 | 0.0 | 0.0 | 0.00 | 0.00 | 0.00 | 97 | 1009.4 | |
| 20260508044524 | 33 | 0.0 | 0.0 | 0.00 | 0.00 | 0.00 | 96 | 1009.6 | |
| 20260508043520 | 33 | 273 | 1.0 | 2.0 | 0.00 | 0.00 | 0.00 | 96 | 1009.5 |
| 20260508042517 | 34 | 208 | 1.0 | 2.0 | 0.00 | 0.00 | 0.00 | 96 | 1009.6 |
| 20260508041533 | 34 | 222 | 2.0 | 3.0 | 0.00 | 0.00 | 0.00 | 96 | 1009.8 |
| 20260508040529 | 34 | 224 | 2.0 | 2.0 | 0.00 | 0.00 | 0.00 | 95 | 1009.7 |
| 20260508035524 | 34 | 227 | 2.0 | 3.0 | 0.00 | 0.00 | 0.00 | 95 | 1009.6 |
| 20260508034521 | 35 | 219 | 3.0 | 3.0 | 0.00 | 0.00 | 0.00 | 94 | 1009.6 |
| 20260508033517 | 35 | 232 | 2.0 | 4.0 | 0.00 | 0.00 | 0.00 | 93 | 1009.7 |
| 20260508032532 | 36 | 217 | 3.0 | 3.0 | 0.00 | 0.00 | 0.00 | 93 | 1009.7 |
| 20260508031528 | 36 | 200 | 3.0 | 3.0 | 0.00 | 0.00 | 0.00 | 92 | 1009.6 |
| 20260508030524 | 36 | 210 | 3.0 | 4.0 | 0.00 | 0.00 | 0.00 | 91 | 1009.5 |
| 20260508025520 | 37 | 214 | 2.0 | 3.0 | 0.00 | 0.00 | 0.00 | 91 | 1009.6 |
| 20260508024516 | 37 | 225 | 3.0 | 4.0 | 0.00 | 0.00 | 0.00 | 90 | 1009.6 |